Location: Newark
(48.1500°N, 2.9667°W)
Time: 23:46:04
(UTC+00:00)

A-11 Canister half - Pass Details

Date: 26 January 2020
Orbit: 1517 x 1683 km, 47.2° (Epoch: 24 February)

Event Time Altitude Azimuth Distance (km) Brightness Sun altitude
Exits shadow 06:39:23 13° 275° (W) 3,439 10.2 -11.5°
Maximum altitude 06:45:51 28° 225° (SW) 2,543 9.9 -10.4°
Drops below altitude 10° 06:53:23 10° 171° (S) 3,722 11.4 -9.2°
Sets 06:57:00 0° 160° (SSE) 4,725 12.2 -8.7°
